Onalaska, WI

10:24 PM CDT on August 31, 2016 (GMT -0500)
La Crosse Municipal

Weather History for KLSE - October, 2013

Change the Weather History Date:

Sunday, October 6, 2013

  Actual Average Record
Temperature  
Mean Temperature 50 °F 54 °F  
Max Temperature 56 °F 64 °F 93 °F (1963)
Min Temperature 43 °F 44 °F 22 °F (1935)
Degree Days  
Heating Degree Days 15 12  
Month to date heating degree days 24 64  
Since 1 July heating degree days 104 224  
Cooling Degree Days 0 1  
Month to date cooling degree days 0 6  
Year to date cooling degree days 916 780  
Moisture  
Dew Point 41 °F    
Average Humidity 70    
Maximum Humidity 89    
Minimum Humidity 50    
Precipitation  
Precipitation 0.07 in 0.08 in 1.78 in (1941)
Month to date precipitation 3.25 0.52  
Year to date precipitation 32.01 28.04  
Snow  
Snow 0.00 in 0.00 in T in (2001)
Month to date snowfall 0.0 0.0  
Since 1 July snowfall T 0.0  
Snow Depth 0.00 in    
Sea Level Pressure  
Sea Level Pressure 29.74 in    
Wind  
Wind Speed 5 mph (SW)    
Max Wind Speed 24 mph    
Max Gust Speed 29 mph    
Visibility 10 miles    
Events Rain    
T = Trace of Precipitation, MM = Missing Value Source: NWS Daily Summary

Daily Weather History Graph

Daily Weather History Graph

Search for Another Location

Airport or City:

Trip Planner

Search our weather history database for the weather conditions in past years. The results will help you decide how hot, cold, wet, or windy it might be!

Date:

Astronomy

Oct. 06, 2013 Rise Set
Actual Time 7:08 AM CDT 6:36 PM CDT
Civil Twilight 6:40 AM CDT 7:05 PM CDT
Nautical Twilight 6:06 AM CDT 7:38 PM CDT
Astronomical Twilight 5:33 AM CDT 8:11 PM CDT
Moon 8:58 AM CDT (10/6) 7:30 PM CDT (10/6)
Length of Visible Light 12h 25m
Length of Day
11h 27m
Waxing Crescent, 3% of the Moon is Illuminated
Oct 6
Waxing Crescent
Oct 11
First Quarter
Oct 18
Full
Oct 26
Last Quarter
Nov 3
New

Hourly Weather History & Observations

Time (CDT) Temp. Windchill Dew Point Humidity Pressure Visibility Wind Dir Wind Speed Gust Speed Precip Events Conditions
12:53 AM 50.0 °F - 39.9 °F 68% 29.77 in 10.0 mi SSW 4.6 mph - N/A   Clear
1:53 AM 48.0 °F - 39.9 °F 74% 29.75 in 10.0 mi Calm Calm - N/A   Scattered Clouds
2:53 AM 46.9 °F - 41.0 °F 80% 29.74 in 10.0 mi South 3.5 mph - N/A   Clear
3:53 AM 45.0 °F 43.5 °F 41.0 °F 86% 29.73 in 10.0 mi SE 3.5 mph - N/A   Clear
4:53 AM 44.1 °F 42.5 °F 41.0 °F 89% 29.73 in 10.0 mi ESE 3.5 mph - N/A   Clear
5:53 AM 44.1 °F 42.5 °F 41.0 °F 89% 29.73 in 10.0 mi East 3.5 mph - N/A   Scattered Clouds
6:53 AM 45.0 °F 42.6 °F 41.0 °F 86% 29.72 in 10.0 mi ESE 4.6 mph - N/A   Overcast
7:53 AM 46.0 °F - 42.1 °F 86% 29.72 in 10.0 mi Calm Calm - N/A   Overcast
8:53 AM 46.9 °F - 42.1 °F 83% 29.73 in 10.0 mi Calm Calm - N/A   Overcast
9:53 AM 50.0 °F - 42.1 °F 74% 29.73 in 10.0 mi SE 3.5 mph - N/A   Overcast
10:53 AM 51.1 °F - 43.0 °F 74% 29.73 in 10.0 mi ESE 3.5 mph - N/A   Overcast
11:53 AM 52.0 °F - 42.1 °F 69% 29.73 in 10.0 mi Calm Calm - N/A   Overcast
12:53 PM 55.0 °F - 39.9 °F 57% 29.72 in 10.0 mi WNW 3.5 mph - N/A   Overcast
1:53 PM 54.0 °F - 39.0 °F 57% 29.70 in 10.0 mi NW 4.6 mph - N/A   Overcast
2:53 PM 54.0 °F - 35.1 °F 49% 29.70 in 10.0 mi Calm Calm - N/A   Overcast
3:53 PM 53.1 °F - 42.1 °F 66% 29.71 in 10.0 mi SW 6.9 mph - N/A   Overcast
4:53 PM 53.1 °F - 41.0 °F 64% 29.72 in 10.0 mi West 5.8 mph - N/A   Overcast
5:53 PM 53.1 °F - 41.0 °F 64% 29.73 in 10.0 mi West 9.2 mph - N/A   Overcast
6:53 PM 52.0 °F - 41.0 °F 66% 29.75 in 10.0 mi West 6.9 mph - N/A   Overcast
7:53 PM 50.0 °F - 42.1 °F 74% 29.77 in 10.0 mi Calm Calm - N/A   Scattered Clouds
8:53 PM 51.1 °F - 42.1 °F 71% 29.77 in 10.0 mi SW 4.6 mph - N/A   Overcast
9:53 PM 51.1 °F - 41.0 °F 68% 29.78 in 10.0 mi SW 4.6 mph - N/A   Overcast
10:44 PM 51.8 °F - 42.8 °F 71% 29.77 in 10.0 mi West 9.2 mph - N/A   Overcast
10:53 PM 51.1 °F - 43.0 °F 74% 29.78 in 10.0 mi West 9.2 mph - N/A   Overcast
11:09 PM 51.8 °F - 44.6 °F 76% 29.77 in 8.0 mi WNW 5.8 mph - 0.00 in Rain Light Rain
11:53 PM 51.1 °F - 48.0 °F 89% 29.78 in 5.0 mi WNW 8.1 mph - 0.05 in Rain Heavy Rain